RH
22 20 20 17 10 4 3 4 5 6 6 6 5 4 2 4 5 3 1 1 1 3 5 6 6 6 6 7 12 19 29 39 45 50 53 58 60 59 65 73 74 72 70 67 62 58 55 55 58 61 61 57 49 35 29 28 25 25 29 30 34 39 42 47 48 46 46 47 50 50 50 55 59 58 56 56 59 56 56 66 73 78 82 78 75
20 20 19 13 6 5 5 6 7 7 8 7 7 6 5 5 4 3 3 2 3 4 4 5 5 6 6 6 6 4 4 8 13 22 33 46 58 64 68 72 73 69 67 69 70 65 59 57 61 65 64 61 56 41 29 29 27 23 25 28 29 32 36 41 46 49 50 50 50 51 50 54 58 58 56 54 57 57 55 63 70 77 83 81 80
10 11 11 8 6 6 6 7 8 8 8 8 8 7 6 6 6 5 5 5 6 6 7 8 8 8 8 7 7 7 5 3 3 3 6 16 29 45 59 69 75 70 62 64 68 69 64 59 61 65 66 63 57 45 33 30 29 24 21 25 27 28 31 33 38 46 52 54 52 52 51 52 57 58 56 53 55 57 56 60 67 75 80 80 84
6 8 8 8 7 7 7 8 8 9 8 8 8 8 8 7 7 7 7 7 7 7 8 7 7 7 7 7 6 5 5 5 5 4 2 3 5 12 27 47 66 74 71 65 64 71 73 67 63 64 67 69 62 49 41 35 30 26 20 20 24 27 28 28 29 35 45 55 55 55 54 52 53 56 56 54 54 56 56 58 64 72 79 80 82
8 10 10 9 9 7 8 8 8 9 8 9 9 8 8 8 8 8 8 8 7 7 7 6 6 6 5 6 6 5 5 5 5 5 5 4 3 3 6 18 40 61 76 76 73 78 79 74 71 67 66 68 66 58 52 45 35 31 25 20 21 23 27 28 27 27 32 46 55 57 57 55 53 53 56 56 55 55 55 57 60 67 76 80 82
10 11 11 10 9 9 9 9 9 9 9 9 9 9 9 9 9 9 9 8 8 8 7 7 6 6 7 6 6 6 5 6 6 6 6 5 5 5 3 6 14 30 55 73 84 86 77 74 77 77 74 68 66 65 61 51 41 37 32 24 21 21 24 27 27 26 25 32 46 56 59 58 56 52 52 55 57 57 54 55 57 61 69 78 85
10 11 11 10 11 10 10 10 10 10 10 10 10 10 10 9 9 9 10 9 9 9 8 9 8 8 7 7 7 6 6 6 5 5 6 6 5 5 4 4 3 6 18 40 68 87 78 67 71 77 79 71 63 64 63 53 42 40 36 28 24 22 23 26 28 29 26 25 33 48 58 59 57 54 51 51 54 57 55 53 55 58 62 71 81
11 11 11 11 11 11 11 11 11 11 11 12 11 12 11 11 11 11 11 11 11 11 10 10 10 10 9 9 9 8 8 7 7 6 6 6 6 6 5 4 3 1 1 6 31 69 80 66 61 67 73 71 65 63 63 56 44 39 37 31 27 24 24 25 28 31 31 27 25 34 49 58 58 55 52 49 49 52 54 52 52 55 58 63 72
11 11 12 12 11 11 11 11 11 11 12 12 12 12 12 12 12 12 12 12 12 12 12 12 11 11 11 11 11 10 10 9 9 8 7 7 7 8 7 6 5 3 3 0 4 36 70 76 63 59 67 71 69 67 68 65 53 40 34 31 28 26 26 26 27 31 33 32 27 24 33 47 55 55 52 49 46 47 49 49 49 51 54 58 64
10 11 14 14 11 10 11 11 11 11 11 11 11 12 12 12 12 12 13 13 13 13 13 13 13 13 13 12 12 12 12 11 11 10 9 8 8 9 9 8 8 6 6 6 2 8 39 69 68 53 55 63 69 70 69 71 68 55 42 32 30 30 31 30 28 28 31 32 31 26 23 29 41 48 50 48 45 44 45 46 45 46 49 54 59
11 12 13 13 11 10 10 10 11 11 11 11 11 12 11 12 12 12 13 12 13 13 13 14 14 14 14 13 14 13 13 13 12 12 11 10 9 9 9 8 8 8 7 8 9 5 11 36 55 53 46 49 62 68 66 69 75 74 61 42 35 38 37 34 30 27 26 28 31 29 24 22 26 34 41 44 44 41 42 44 44 43 43 48 53
12 11 11 11 10 11 11 11 11 11 11 11 12 12 12 12 13 13 13 13 13 13 13 14 14 14 14 14 14 14 14 14 13 13 13 12 12 10 10 10 7 7 7 7 8 10 8 11 26 41 46 47 53 60 63 68 74 79 74 57 45 43 41 39 40 36 28 23 24 27 27 24 22 25 29 35 38 36 36 38 40 42 41 42 46
10 10 10 10 10 9 9 9 10 10 11 12 12 12 13 13 13 13 13 13 14 14 14 14 14 14 14 14 14 14 14 14 14 14 14 13 13 12 12 11 10 8 8 8 6 8 11 10 11 19 32 45 55 63 65 65 69 74 74 64 53 50 47 43 47 53 50 36 24 22 24 25 23 24 25 27 30 31 30 30 31 35 39 41 42
8 9 9 8 8 8 8 8 8 9 10 11 11 12 13 13 13 13 14 14 15 15 15 15 15 15 15 14 14 14 14 14 14 14 15 15 14 14 14 13 12 12 9 8 8 7 7 10 11 11 16 29 48 71 78 72 67 69 70 65 56 54 53 49 48 54 61 56 43 29 22 24 24 24 25 26 27 27 26 25 24 25 31 37 40
8 8 8 8 8 8 7 8 7 8 8 9 10 11 11 12 12 12 13 14 15 16 17 16 16 16 16 15 15 15 14 14 14 14 15 15 15 15 15 15 14 13 12 10 9 9 8 8 10 12 13 17 27 49 71 84 83 71 65 61 58 56 53 51 52 52 54 57 59 48 30 24 24 23 25 26 27 27 26 24 23 22 22 29 37
8 8 8 8 8 8 8 8 7 7 7 7 8 9 10 10 10 10 11 13 15 16 17 17 17 17 17 16 16 16 16 15 15 15 16 15 16 16 16 16 15 14 13 13 11 10 10 10 9 9 11 14 18 23 37 64 85 84 72 63 62 65 61 53 51 53 54 53 57 56 42 32 27 24 24 24 24 25 26 25 24 23 21 21 28
9 8 9 9 8 8 8 8 8 7 6 6 7 8 9 9 9 9 10 12 14 16 17 18 18 18 18 17 17 17 16 17 16 16 17 16 16 17 16 16 16 16 14 14 13 11 10 10 10 10 10 11 14 18 19 28 49 68 75 73 67 67 66 61 56 55 56 55 57 58 52 44 36 28 23 21 21 21 22 24 24 23 23 22 22
9 9 9 9 8 8 7 9 12 10 6 5 7 8 8 9 9 10 11 13 14 15 17 18 19 19 19 19 18 18 17 17 18 17 17 18 18 17 17 16 16 16 16 15 14 13 12 11 10 10 10 10 10 13 16 17 20 29 46 62 70 70 66 62 62 62 61 62 65 66 58 46 39 33 24 19 18 18 18 20 22 23 23 23 22
9 9 8 8 8 8 7 11 16 12 6 5 7 8 9 9 11 12 14 15 15 16 17 18 19 20 20 21 20 20 20 19 19 19 19 18 18 17 16 16 16 16 16 16 15 14 13 12 11 10 10 10 10 10 11 14 17 16 17 28 44 60 67 68 68 67 67 67 68 67 56 45 41 37 29 24 18 16 17 17 18 21 22 23 23
8 8 8 8 8 7 6 11 17 10 5 6 8 9 10 10 12 14 16 16 17 17 18 19 20 21 21 21 22 22 21 21 20 20 20 19 18 18 17 16 16 16 15 15 15 15 14 13 11 12 11 10 9 10 10 10 13 17 17 15 17 27 42 58 69 71 71 72 74 70 59 51 48 41 33 33 28 19 16 17 16 18 20 22 22
8 8 8 7 8 8 4 8 14 9 5 7 8 9 10 11 13 14 16 17 18 18 19 20 20 21 22 21 22 22 22 22 21 20 19 19 19 18 18 18 17 16 16 15 15 15 14 14 13 12 12 11 10 9 10 11 10 12 17 19 18 16 17 27 44 59 69 75 79 76 65 56 53 48 43 43 40 29 19 16 17 17 18 20 21
8 8 9 8 9 7 3 6 12 9 6 8 9 10 11 12 14 15 17 18 19 20 20 21 20 20 21 21 20 21 21 21 21 21 21 21 22 22 21 20 19 18 17 16 15 14 14 13 13 13 12 11 11 9 9 10 11 10 11 14 18 21 20 18 20 29 45 63 77 77 67 58 54 53 52 51 47 38 28 20 16 15 16 17 19
9 9 9 9 9 6 2 7 12 10 7 9 9 10 12 13 15 16 18 19 20 21 21 21 21 21 20 20 19 19 19 20 21 22 24 24 24 23 23 22 22 20 19 18 16 15 15 14 13 13 13 11 10 9 8 9 11 11 10 10 12 15 19 22 22 18 21 38 63 74 67 58 53 52 54 54 49 44 39 31 22 17 15 15 16
11 11 10 9 7 4 3 9 13 10 8 9 10 11 12 13 15 17 19 20 20 20 21 21 21 21 21 20 19 18 18 18 20 21 21 22 21 20 20 21 22 22 21 19 18 16 15 15 14 13 12 11 9 8 7 7 8 11 12 12 12 12 12 14 20 23 19 20 36 56 66 62 56 51 52 56 56 52 50 44 33 25 21 17 15
12 11 10 8 6 4 5 12 14 10 9 10 11 11 12 13 15 17 18 19 20 20 20 21 22 22 21 20 20 19 19 19 19 20 19 19 19 18 18 17 19 21 22 21 19 18 16 15 15 14 12 11 10 9 8 6 5 7 9 11 12 13 14 12 12 16 21 20 19 30 49 62 62 53 48 53 58 56 55 51 42 34 30 24 18
11 11 9 7 7 5 8 15 16 11 10 11 12 12 13 13 14 16 18 18 19 20 20 21 21 21 20 20 20 20 20 21 20 20 19 18 18 18 18 18 17 17 19 21 20 19 18 16 15 14 13 11 10 9 9 8 6 5 4 6 9 10 12 15 13 12 14 19 19 18 25 43 58 59 51 51 55 55 54 54 48 41 38 33 27
9 9 8 7 7 8 12 18 18 13 11 12 12 12 13 14 14 15 17 18 18 19 20 20 20 20 20 20 20 20 20 19 19 17 16 15 15 17 18 18 18 18 18 19 20 20 19 17 16 14 13 12 11 11 10 9 7 6 6 5 5 6 6 10 13 13 11 13 18 19 16 21 36 51 56 55 55 53 52 54 55 49 42 38 33
9 9 9 9 10 11 14 20 21 16 13 13 13 13 13 14 15 16 16 17 18 18 19 19 18 18 20 20 20 20 19 17 16 16 15 15 14 16 19 19 19 19 19 18 19 19 18 17 16 15 14 13 13 13 12 12 9 8 8 7 6 5 4 5 9 13 13 11 13 17 18 16 18 29 43 52 55 54 50 50 55 55 48 43 37
11 11 11 12 14 15 14 19 24 20 15 14 13 13 14 14 15 15 15 16 17 17 17 17 18 19 19 20 20 20 19 17 16 16 18 18 16 15 18 21 21 20 20 20 20 20 18 18 18 18 18 16 15 15 13 12 11 10 9 9 8 5 4 4 6 10 13 12 10 13 16 17 16 16 22 35 47 54 52 47 47 53 52 46 40
13 14 15 14 13 13 12 16 23 23 17 14 14 13 14 14 15 15 15 16 16 16 17 18 19 20 19 20 22 22 20 18 17 18 20 20 17 13 14 18 21 20 20 19 22 23 20 20 21 21 21 20 17 15 14 12 11 11 11 10 9 7 5 4 5 7 11 12 11 11 13 15 16 15 14 20 33 47 55 50 42 44 48 45 40
16 14 11 9 8 7 10 14 20 23 20 16 14 14 14 15 16 15 16 16 16 16 18 19 20 20 21 24 25 25 24 22 20 19 20 20 15 10 10 14 17 19 20 19 22 28 26 24 26 26 24 24 22 19 17 16 15 14 14 14 13 11 7 5 4 6 8 10 11 10 11 12 14 15 15 15 21 35 51 55 47 40 40 42 42
32 23 10 3 4 5 7 11 16 20 20 17 15 15 16 16 17 17 17 17 18 19 20 21 21 22 24 26 27 28 28 26 23 20 18 15 12 8 9 12 15 17 18 16 19 28 31 28 26 28 28 27 26 23 20 19 19 19 18 18 17 15 11 7 6 7 7 8 10 10 10 10 11 14 15 15 17 25 41 55 55 46 39 37 40
59 50 27 6 3 5 5 8 12 16 17 17 18 18 18 19 18 19 20 21 21 23 23 23 23 25 26 28 29 29 28 25 22 17 13 10 8 7 8 10 13 14 15 15 15 20 28 28 25 26 27 25 21 19 17 16 15 16 16 15 15 15 14 11 8 9 8 7 8 10 10 10 10 11 13 15 16 19 31 48 58 56 46 36 35
76 76 52 19 6 8 8 9 12 16 20 21 22 22 20 21 22 22 22 23 23 24 25 25 25 27 29 30 29 27 25 23 19 14 10 8 7 7 8 10 11 12 12 12 12 14 19 25 27 26 25 24 22 19 16 15 13 13 12 12 13 13 14 14 12 11 10 8 7 8 9 10 10 10 11 14 16 17 23 37 53 61 55 42 34
84 89 69 35 15 12 14 16 17 19 22 23 23 23 23 23 23 23 23 23 24 24 25 26 27 29 30 29 27 24 21 19 16 12 9 8 8 8 9 9 11 12 12 11 11 12 14 20 26 29 29 28 26 21 17 16 15 14 13 15 18 18 17 17 17 15 13 11 8 7 7 8 9 10 10 11 14 17 20 27 41 55 60 51 38
85 88 82 61 38 30 35 37 34 27 22 23 25 24 25 26 23 23 24 23 23 24 25 27 29 29 29 27 23 21 20 17 13 10 9 9 9 9 10 11 11 13 14 14 13 13 14 16 21 26 26 26 26 24 22 20 19 20 21 24 28 29 26 23 19 17 15 13 10 8 7 7 7 9 10 11 12 15 18 23 31 44 55 57 48
80 81 87 84 68 60 63 61 51 38 27 25 26 26 26 27 24 24 26 25 24 26 28 30 31 31 30 26 23 21 19 15 11 10 9 9 9 10 11 12 13 15 16 17 16 16 16 16 18 20 21 23 28 31 29 25 27 34 38 39 40 38 31 26 22 19 17 15 11 8 8 8 7 6 8 10 11 12 15 20 26 35 46 55 57
77 88 92 87 82 79 77 77 68 47 31 26 26 28 29 27 26 27 28 28 27 29 30 31 31 30 28 24 20 18 15 12 10 10 9 9 9 10 11 13 15 16 17 17 17 17 17 17 17 17 20 27 34 36 33 32 37 46 50 48 44 41 35 29 25 25 24 20 16 11 8 9 9 7 6 8 9 10 12 15 21 29 39 49 58
66 83 86 76 79 85 85 90 82 53 31 27 27 29 30 28 28 29 30 30 29 30 30 29 27 25 23 20 15 13 12 10 10 9 8 9 9 9 11 14 16 17 18 18 18 18 17 17 17 16 22 35 42 37 33 36 41 47 51 48 42 40 39 35 31 30 32 29 23 17 11 8 10 9 7 6 7 9 10 12 16 23 33 42 53
68 68 72 66 70 85 88 87 79 54 35 30 29 30 29 29 31 31 30 31 30 30 28 25 23 21 20 17 13 11 11 10 10 9 9 9 8 10 13 15 17 18 19 19 19 19 17 16 15 17 28 43 46 36 31 34 38 43 47 47 43 40 40 40 37 34 34 33 30 25 18 12 10 11 9 7 6 7 8 10 12 17 26 37 47
81 63 70 75 76 88 89 81 74 58 41 34 32 32 30 29 32 32 30 31 30 28 26 23 20 20 19 16 14 13 13 12 11 10 9 10 10 10 13 16 18 18 19 19 19 19 18 15 14 22 37 47 43 34 31 29 28 32 38 40 38 36 34 33 33 31 29 28 27 26 23 19 15 12 12 11 8 6 6 8 10 13 19 31 42
84 62 67 81 90 98 94 84 80 65 46 40 40 36 32 30 32 32 31 32 30 27 26 23 19 18 17 16 15 15 15 14 12 10 11 12 12 13 13 15 16 17 18 19 20 18 17 15 20 33 46 47 39 34 31 26 21 24 28 27 22 21 21 20 21 24 25 21 18 19 20 20 18 16 15 15 13 8 6 6 8 10 14 23 36
93 77 69 74 87 98 94 89 89 74 54 49 48 42 36 32 32 33 35 34 32 28 25 20 17 16 16 17 18 17 17 15 13 11 12 13 14 14 13 13 15 16 18 19 19 18 17 20 32 46 49 43 38 36 31 25 21 19 19 19 17 18 19 19 18 22 28 27 19 14 14 14 15 16 15 14 14 11 7 6 7 9 11 16 28
103 98 86 77 83 95 96 96 97 85 68 59 56 50 41 34 33 36 39 38 35 29 22 17 16 15 15 16 17 18 18 16 14 13 13 14 14 13 12 12 14 17 19 19 17 17 21 31 46 53 47 40 37 35 30 24 21 19 19 20 21 22 23 24 22 23 30 36 27 15 11 10 9 11 11 10 13 13 9 6 6 7 10 12 19
98 103 99 93 94 98 100 101 100 92 79 70 66 59 47 39 38 41 43 43 39 30 20 15 14 14 14 14 15 18 18 18 16 15 15 15 14 12 12 13 15 18 19 17 17 23 33 42 50 50 43 37 35 35 31 24 21 21 22 22 24 25 25 28 30 29 34 42 36 19 11 9 8 9 9 9 12 15 11 8 6 6 8 10 13
87 99 102 100 100 100 100 102 99 92 83 79 76 67 53 45 45 48 50 49 42 30 19 15 13 12 12 12 14 17 19 20 19 17 15 13 13 13 13 15 17 19 18 16 22 38 48 47 43 42 40 38 35 32 27 23 24 28 28 32 37 39 36 36 38 39 43 51 47 26 10 10 12 9 9 11 14 16 14 9 7 6 7 9 10
83 95 99 100 100 101 101 100 95 88 85 86 84 72 60 55 55 56 58 56 46 30 18 14 12 11 11 11 14 17 20 21 19 15 12 11 11 12 13 15 18 17 18 21 33 51 57 48 40 40 40 38 33 27 22 25 37 43 44 52 58 53 46 43 45 49 54 63 63 38 13 13 18 12 10 15 16 18 19 12 6 6 6 8 9
84 87 90 93 96 97 96 92 89 84 84 88 86 75 69 69 68 67 67 63 49 31 19 16 13 10 10 11 14 17 19 19 17 12 10 9 10 11 12 16 18 19 26 37 48 55 52 45 42 40 37 34 29 23 21 31 46 55 61 71 72 61 53 50 52 58 61 70 78 54 18 12 21 17 15 20 20 21 23 15 7 6 6 6 8
88 91 92 93 94 96 96 93 90 88 87 88 84 76 76 78 79 82 78 66 48 31 22 18 14 11 11 11 13 17 18 18 15 11 9 9 10 11 14 17 18 26 43 57 61 56 47 43 43 38 34 33 27 20 24 36 51 65 75 82 76 65 61 57 59 67 72 81 87 59 18 10 21 23 23 26 25 23 24 17 7 5 6 6 7
89 96 100 100 97 98 101 99 96 95 94 91 84 81 85 89 91 92 82 62 45 32 24 19 15 11 11 11 14 16 18 17 14 10 9 11 11 13 16 18 21 35 55 65 62 55 49 47 45 39 36 33 23 21 29 42 58 74 88 93 84 74 68 65 67 75 82 94 92 55 18 15 26 28 31 33 29 26 26 19 8 5 6 5 6
85 87 95 101 100 99 101 101 98 96 95 94 91 91 96 98 97 91 75 56 42 32 25 20 15 13 11 11 14 17 18 16 12 10 11 12 14 17 18 18 25 42 57 60 56 53 53 53 48 42 39 30 21 24 34 46 61 78 93 100 93 80 70 68 73 76 80 95 92 54 25 28 34 34 37 38 32 29 26 18 8 5 6 6 6
Wind_Speed
7 7 7 8 9 10 10 10 10 10 10 10 11 10 10 9 7 6 6 5 5 6 7 7 8 10 10 10 10 10 9 9 9 9 9 9 9 10 12 13 14 14 17 20 22 21 21 21 20 21 22 22 21 19 17 17 17 16 15 13 12 12 11 11 12 12 12 12 12 11 11 10 9 8 6 5 4 4 3 3 3 2 3 4 4
7 7 7 8 9 9 10 10 10 10 10 10 10 10 9 9 8 8 7 7 7 8 8 8 9 11 12 12 12 12 12 12 11 10 10 9 9 9 10 11 13 13 14 17 21 22 22 21 21 22 23 24 24 22 20 19 18 18 17 16 14 13 12 12 12 13 12 13 13 13 12 11 11 10 8 6 5 4 4 4 3 3 4 4 4
7 7 7 7 8 9 9 9 10 10 9 9 10 9 9 9 9 8 8 8 9 9 10 10 11 11 12 13 13 14 14 13 13 12 11 10 10 10 11 11 12 13 13 15 18 21 22 22 22 23 24 26 27 25 22 21 20 20 19 18 16 15 14 14 14 14 14 14 14 14 14 13 12 11 10 8 6 5 4 4 4 4 5 5 5
8 7 7 7 7 8 8 8 8 8 8 9 9 9 10 10 10 9 9 9 9 9 10 10 11 11 12 13 14 14 14 14 14 13 13 12 11 11 11 11 12 13 14 14 16 19 19 19 21 23 24 25 26 25 23 22 21 21 20 19 18 17 16 15 15 15 15 15 15 15 15 15 14 13 12 10 7 6 6 5 5 5 5 6 6
7 7 7 7 6 7 7 7 7 7 8 8 9 9 10 10 10 10 10 10 10 10 9 10 10 11 11 12 13 14 14 14 14 14 14 13 12 11 11 11 12 13 15 16 17 16 17 20 21 22 23 23 24 23 22 21 21 21 21 20 19 19 19 18 17 16 16 17 17 17 16 16 16 15 14 12 10 8 7 7 6 6 6 6 6
7 7 6 6 6 6 6 6 7 7 8 8 8 9 9 10 10 10 10 11 11 12 11 11 11 11 12 13 13 13 14 14 14 14 14 14 13 12 11 12 12 13 15 17 19 17 18 22 21 21 21 21 22 23 24 23 23 22 21 21 20 20 20 20 19 18 17 18 18 18 17 17 17 16 16 15 12 10 9 8 8 7 7 7 7
6 6 6 5 5 5 5 6 6 7 8 8 9 9 10 10 10 11 11 12 12 12 13 13 13 13 14 14 14 14 14 14 14 14 14 14 14 13 12 13 14 15 16 18 21 20 19 22 22 21 21 22 24 26 26 26 25 23 23 22 22 21 22 21 21 20 19 19 19 19 19 18 17 17 17 17 15 13 11 10 9 9 8 8 8
5 5 5 5 5 5 6 6 7 7 7 8 9 10 10 11 11 12 12 13 13 13 13 13 13 14 15 15 15 15 14 14 15 14 14 14 14 14 14 13 14 16 18 19 22 22 21 21 22 23 23 22 25 26 26 27 27 26 25 25 23 22 23 23 23 22 21 20 20 20 20 20 19 18 17 17 17 16 14 12 11 10 10 9 9
4 5 5 5 6 6 6 7 7 8 8 8 9 10 10 11 11 12 12 13 13 13 14 14 13 14 15 15 16 16 16 16 16 15 15 15 14 14 14 14 14 15 17 19 21 22 22 22 21 24 25 24 24 26 26 27 28 28 27 27 26 25 25 24 24 24 24 23 22 22 22 22 21 20 19 18 18 17 16 14 13 12 11 10 10
5 6 6 6 6 7 8 8 8 9 10 10 9 10 10 11 11 12 12 13 14 14 14 14 14 14 14 15 16 17 17 17 17 17 16 16 15 15 15 15 15 15 16 18 19 21 22 22 21 23 26 28 28 26 25 26 27 27 28 28 28 27 27 26 26 26 26 25 25 24 23 23 22 21 20 19 19 18 18 17 15 14 13 12 11
6 7 7 8 8 9 10 10 10 11 11 12 11 11 11 11 11 12 12 13 15 15 15 15 14 14 14 15 16 17 18 19 18 18 17 17 16 15 15 15 16 17 17 18 18 19 22 23 24 25 27 30 30 27 27 27 27 27 28 29 29 29 29 28 28 28 28 27 27 27 26 25 25 23 22 21 20 19 18 18 17 16 15 14 13
7 8 9 10 10 11 12 12 12 12 13 13 13 12 12 12 12 13 13 14 15 17 17 16 16 15 15 16 17 18 18 19 19 19 18 18 17 16 16 16 16 17 18 18 19 18 20 22 25 27 29 31 31 29 29 29 29 29 30 30 30 31 31 31 31 29 28 28 29 29 29 28 27 26 24 23 22 21 20 19 19 18 17 16 15
9 9 10 11 11 12 13 14 14 14 14 14 14 13 13 13 13 13 13 14 15 17 18 18 18 18 17 16 17 18 19 19 19 19 19 19 19 18 17 17 16 17 18 18 19 18 18 19 22 26 29 32 32 30 30 31 32 31 31 31 32 32 32 34 34 32 31 30 30 30 30 29 29 27 26 25 24 23 22 20 20 19 19 18 18
10 10 11 12 12 13 14 15 15 15 15 15 15 14 14 13 14 14 13 14 14 16 18 19 20 20 20 19 17 18 19 19 19 19 20 20 19 19 19 18 18 18 18 18 18 18 18 17 19 23 27 30 32 32 31 32 33 32 33 33 34 35 35 36 36 35 34 32 31 30 30 31 31 30 28 27 27 26 24 23 21 20 20 20 19
12 12 13 14 14 15 15 16 16 17 17 16 16 15 15 15 15 15 14 14 14 15 17 18 20 21 22 22 21 20 20 20 19 19 19 20 20 20 19 19 19 19 19 18 18 17 17 17 17 19 22 27 30 31 32 33 33 33 34 35 35 36 37 38 38 37 36 33 32 32 32 32 32 31 30 29 29 28 27 26 24 22 21 21 21
14 14 15 16 16 17 18 18 18 18 17 17 16 15 16 16 16 17 17 17 16 16 17 18 19 20 21 23 24 23 22 21 20 19 19 20 20 21 20 20 20 19 19 19 18 18 17 17 17 17 19 22 26 30 32 32 32 33 34 36 36 36 36 38 38 38 37 35 35 34 34 34 33 33 32 31 31 30 29 28 27 25 24 22 21
15 16 16 17 18 18 19 20 20 19 18 17 16 16 16 17 18 19 19 20 20 19 19 19 19 20 21 22 23 24 24 24 23 21 20 21 21 21 21 21 21 20 19 18 18 18 18 17 17 18 19 20 22 26 29 32 33 34 35 36 37 36 36 36 36 38 38 38 38 37 37 37 35 34 34 33 32 32 32 30 29 28 27 25 23
18 18 18 18 18 19 20 21 22 21 20 19 17 17 17 18 20 21 22 23 23 22 21 21 21 21 21 21 22 23 25 26 26 25 23 22 22 22 22 22 21 21 20 19 18 18 18 18 17 17 19 20 22 23 26 29 32 34 35 37 38 38 37 37 37 38 39 39 39 39 40 39 37 36 35 34 34 34 34 33 32 31 29 28 26
21 20 20 20 20 20 21 22 22 21 21 19 18 17 17 18 19 20 22 23 23 23 22 22 22 21 21 21 21 22 23 25 26 27 26 24 23 23 24 23 22 22 20 20 19 19 18 18 19 19 19 20 22 24 25 27 29 32 34 37 38 39 39 39 39 40 41 41 41 41 42 41 39 38 38 37 36 35 35 34 34 33 32 31 29
22 22 22 22 21 21 22 21 21 20 20 19 17 16 16 17 18 19 20 21 22 23 23 23 23 22 22 22 21 21 22 23 24 26 27 27 25 24 24 24 23 22 22 21 20 20 20 20 20 21 22 22 23 24 26 27 28 30 32 35 37 39 40 41 41 42 42 43 43 43 43 42 42 40 40 39 38 37 36 35 35 35 35 34 32
24 23 23 22 22 22 22 21 20 19 19 18 17 17 17 18 19 20 21 22 22 23 24 24 24 24 24 24 23 23 23 23 23 24 25 27 28 27 25 24 24 22 22 22 22 21 21 22 22 24 25 25 26 26 27 28 28 29 30 32 34 37 39 41 42 43 43 43 44 44 44 44 44 43 42 41 40 39 38 37 37 37 37 36 35
24 24 23 22 22 22 22 21 20 19 18 18 17 17 18 19 20 22 22 23 23 24 25 25 26 26 26 26 26 26 25 24 23 23 23 24 27 28 27 26 25 24 22 22 23 23 24 24 25 26 27 28 29 29 29 29 30 30 31 32 32 34 36 39 41 42 43 44 44 44 45 45 45 45 44 43 42 40 39 39 39 39 39 39 38
24 24 23 22 23 23 22 21 20 19 19 18 18 17 17 19 21 22 23 24 24 25 26 27 27 28 28 29 29 29 28 27 25 24 23 23 24 25 27 27 26 25 25 25 25 26 27 27 28 29 30 31 31 31 31 31 32 33 33 33 34 34 35 37 39 41 43 44 44 45 46 46 46 47 46 45 44 43 41 41 41 40 41 41 40
24 24 23 23 23 23 22 21 20 19 19 19 19 17 17 19 21 23 24 25 25 26 27 28 28 29 30 30 30 30 30 29 28 27 26 26 26 26 27 28 28 27 27 27 28 29 30 31 31 32 32 33 33 33 33 33 34 34 35 36 36 37 37 37 38 40 42 44 45 46 47 47 47 47 47 46 46 45 44 43 43 42 42 42 42
25 25 24 24 23 23 23 22 21 20 19 19 19 19 19 20 21 23 24 26 27 28 28 29 29 30 30 31 31 31 31 31 30 30 30 31 31 31 31 30 29 29 29 29 29 31 32 33 34 34 35 35 35 35 35 35 35 36 37 38 39 39 39 40 40 40 41 43 45 48 49 49 48 48 48 48 47 47 47 46 45 44 43 43 43
26 26 25 24 24 23 23 22 22 21 20 19 20 20 21 22 22 24 25 27 28 29 30 30 30 31 32 32 33 33 33 32 32 32 33 35 35 35 34 32 30 29 30 31 31 32 33 34 36 36 37 38 38 38 38 38 38 38 38 39 40 42 42 42 42 43 43 43 44 47 49 50 50 50 50 50 49 49 49 49 48 46 45 45 44
27 27 26 25 24 24 23 22 22 22 21 20 21 22 22 23 24 25 26 28 29 30 31 31 32 33 34 35 35 35 34 33 33 34 35 37 38 38 35 32 30 28 29 30 32 33 33 34 36 38 39 40 41 41 40 40 39 39 39 40 41 42 43 44 44 44 45 45 45 45 48 50 50 51 52 52 51 50 50 51 50 49 48 47 45
27 27 27 26 25 24 23 23 23 23 22 22 22 23 24 25 25 26 27 29 30 31 32 33 34 35 36 37 37 36 34 34 34 35 37 38 39 39 36 33 30 29 28 28 31 33 35 35 36 38 39 40 40 41 42 41 40 39 39 40 41 42 43 44 44 45 46 48 47 46 47 49 50 51 52 52 52 51 52 52 52 52 51 50 48
27 26 27 27 26 25 24 24 24 24 23 23 23 24 25 26 27 27 28 29 31 32 33 34 35 36 37 38 38 36 35 34 35 37 39 41 41 40 38 36 34 31 29 27 28 31 35 36 37 38 39 40 40 41 41 41 41 40 40 40 41 41 43 44 45 45 46 48 49 49 48 48 49 50 51 52 52 52 52 53 54 54 54 52 51
27 25 25 26 26 25 24 24 24 24 24 24 24 25 26 27 27 28 29 30 32 33 34 35 35 36 38 38 38 37 36 36 38 40 43 44 44 42 41 39 37 35 32 28 26 29 33 35 36 37 38 39 39 39 40 40 40 40 40 40 40 41 42 44 45 46 47 48 50 51 50 49 49 49 50 51 52 52 53 54 54 55 56 55 54
27 25 23 24 25 25 24 24 24 25 25 25 25 26 26 27 28 28 30 31 33 34 34 34 35 36 37 38 38 37 37 38 40 42 45 47 46 44 42 40 39 37 34 31 28 28 31 32 34 36 37 38 39 39 39 40 41 41 41 42 42 41 42 44 46 47 48 49 50 51 52 51 50 50 50 50 51 52 53 54 55 55 56 57 56
29 26 23 23 23 24 24 24 24 25 26 25 25 26 26 27 27 29 30 31 32 33 33 34 35 36 37 37 38 37 37 38 41 44 46 47 47 45 42 41 39 37 36 35 32 30 31 32 33 35 37 38 39 40 40 41 42 43 44 45 45 45 43 43 45 47 48 48 50 52 53 53 52 51 50 50 51 52 53 54 55 56 57 58 58
31 27 24 22 22 22 23 23 24 25 25 26 26 26 26 26 27 28 29 30 31 32 32 33 34 35 36 36 36 36 37 39 41 44 46 47 46 45 43 42 41 39 38 38 37 33 32 34 35 36 37 37 38 40 40 41 43 44 44 46 47 47 46 45 45 47 48 48 49 51 52 54 54 54 52 51 51 52 54 55 56 57 57 58 59
32 27 24 23 22 22 23 23 24 25 26 27 27 27 26 26 26 27 28 30 30 31 32 33 34 34 35 35 36 38 39 41 42 44 45 45 44 43 42 42 42 42 41 41 41 37 35 35 37 37 38 38 39 41 43 44 45 45 45 45 47 47 47 47 47 47 49 49 49 49 51 53 55 56 55 54 53 53 54 55 56 58 58 59 60
33 29 25 24 23 24 24 23 23 25 27 28 28 27 26 26 26 27 29 30 30 31 32 33 34 34 35 37 39 40 41 42 43 43 43 42 42 41 42 42 42 43 43 43 43 42 39 38 38 39 40 41 42 44 46 46 46 46 46 45 46 46 48 49 48 48 50 51 51 50 50 51 53 56 57 57 55 54 55 56 57 58 59 60 60
36 32 29 27 26 27 27 26 25 26 27 28 27 27 26 26 27 28 30 31 31 32 33 34 35 36 37 39 41 42 42 43 43 42 41 40 40 40 41 42 43 43 43 43 43 44 43 41 41 41 42 43 43 44 44 44 43 43 44 45 45 45 46 48 49 49 50 52 53 52 51 51 51 54 57 59 58 57 56 57 58 59 60 61 62
37 35 34 33 32 31 30 29 28 27 28 28 27 27 26 25 27 28 30 31 32 33 34 35 36 37 39 41 42 42 43 43 42 41 40 39 39 39 40 41 42 42 42 43 43 44 45 44 43 43 43 42 41 40 41 41 39 39 41 42 42 43 44 46 47 48 49 51 53 53 52 51 51 52 54 58 60 60 59 59 59 60 61 62 63
37 36 35 37 37 35 32 31 30 29 29 28 26 25 25 26 27 28 30 32 33 34 35 37 38 38 39 41 42 43 43 42 41 40 40 39 39 40 40 41 42 42 42 43 43 44 45 45 45 45 43 41 39 38 39 40 38 37 38 39 40 41 43 44 45 47 49 51 52 54 54 52 51 51 52 55 60 62 62 61 61 61 62 63 64
36 36 36 38 41 38 34 32 31 31 30 29 26 25 26 27 28 28 30 32 33 34 36 37 38 38 39 41 43 43 42 41 41 41 40 41 41 42 42 42 42 42 42 43 43 44 45 46 46 46 43 39 38 38 39 39 38 38 38 38 38 40 42 43 44 46 48 50 52 53 54 53 52 51 52 53 57 61 64 64 63 63 63 64 64
35 37 38 39 41 40 36 33 32 33 32 30 27 26 27 28 28 28 30 32 33 34 35 37 38 38 39 42 43 43 42 41 41 41 41 42 43 43 43 42 41 41 42 43 43 44 45 46 46 46 42 38 38 39 40 39 38 39 40 40 40 41 42 42 43 45 48 50 51 52 53 53 52 52 52 52 54 58 64 66 66 64 64 65 65
37 38 38 39 40 39 37 34 34 34 33 31 29 28 28 29 28 28 30 32 32 33 35 37 38 39 40 42 43 42 41 41 41 41 42 43 44 43 42 41 41 41 41 42 43 44 45 46 46 44 41 38 39 40 40 39 37 38 40 41 41 42 42 42 43 45 48 50 51 52 52 52 52 51 50 51 52 56 61 66 68 67 65 65 66
38 39 39 41 41 39 37 35 35 35 35 34 32 30 29 29 28 27 29 30 31 33 36 38 39 40 41 42 43 42 42 41 41 41 43 44 44 42 41 40 40 40 41 42 43 45 45 45 44 42 40 39 40 40 40 38 36 36 38 41 41 42 43 43 42 44 48 51 52 51 50 50 51 50 49 50 51 54 58 64 68 69 66 65 66
39 40 42 44 43 41 39 37 36 37 36 36 35 31 30 29 27 27 28 30 32 36 39 40 40 41 41 42 43 43 44 43 41 41 43 43 42 41 40 39 39 40 41 42 43 44 44 43 41 40 40 40 40 40 39 37 36 36 39 41 43 43 44 44 42 42 45 51 54 51 48 49 51 50 50 50 50 53 56 60 66 69 68 66 65
41 42 43 44 45 44 41 39 39 39 39 39 37 33 31 29 28 27 28 29 33 37 39 39 40 42 43 43 43 43 44 44 42 41 42 42 41 39 38 38 38 40 41 42 43 43 42 40 39 40 41 40 39 39 39 38 38 39 41 42 44 45 45 45 43 41 43 50 54 52 47 48 50 50 50 50 51 53 54 57 63 68 69 67 65
42 44 44 43 43 44 43 42 41 41 40 40 39 35 32 30 28 27 27 29 34 38 39 39 41 43 44 44 43 42 43 43 42 41 40 39 38 37 36 36 38 40 42 43 43 41 39 38 37 39 40 40 39 39 39 39 39 40 42 43 44 46 46 45 43 41 43 48 54 53 47 48 51 50 48 49 50 53 53 55 60 66 69 68 66
43 43 44 42 40 41 42 42 42 41 41 41 40 37 33 29 28 28 29 30 35 38 39 40 43 45 45 43 42 41 42 41 41 40 38 37 36 35 35 36 38 40 41 42 41 39 37 36 36 38 39 39 39 38 38 39 40 41 43 44 44 45 45 42 41 40 42 47 53 53 48 49 52 49 46 47 49 51 52 53 58 64 67 67 66
41 39 40 37 35 37 40 41 41 41 41 42 41 37 34 31 30 31 31 32 36 38 39 41 43 44 43 41 40 40 40 40 39 38 37 37 36 35 35 36 38 40 40 40 39 37 36 36 36 37 36 36 37 37 37 38 39 41 44 46 47 46 43 40 37 36 37 41 48 53 52 52 51 46 43 45 47 49 50 52 56 62 65 66 66
37 34 34 33 33 36 40 41 41 41 42 41 39 36 34 34 34 34 33 35 38 38 39 42 43 42 41 39 39 39 40 39 38 37 37 37 36 36 36 37 39 39 39 38 37 35 35 36 36 35 34 33 34 35 36 37 38 41 44 46 48 46 42 37 32 29 30 33 39 50 56 53 48 43 41 44 47 49 49 51 55 60 63 65 66
34 31 33 34 37 40 41 42 43 43 41 39 37 35 35 37 38 36 35 38 38 37 39 42 42 41 40 39 39 39 39 38 37 37 37 37 36 36 36 37 38 38 37 36 34 34 34 35 35 34 32 32 33 34 35 36 38 41 44 46 47 45 42 36 29 24 24 26 33 47 54 49 43 40 40 44 47 48 48 50 54 58 62 64 65
33 31 33 37 41 44 43 42 43 42 38 36 35 34 35 39 40 37 36 38 38 38 40 42 41 41 40 39 39 38 38 37 36 36 36 36 36 35 35 36 37 36 34 33 33 33 34 35 35 34 32 33 34 34 35 37 39 42 44 46 46 46 44 38 30 22 17 20 31 43 47 42 39 39 39 44 46 45 47 50 54 58 61 62 64
38 35 35 37 40 42 40 39 41 41 37 34 33 32 34 38 38 36 38 38 37 38 40 41 41 41 40 39 38 37 37 35 35 35 35 35 35 35 35 35 34 33 32 31 31 32 33 34 34 34 33 34 34 34 35 37 39 42 45 46 46 47 43 37 31 23 15 18 30 40 40 38 38 37 38 42 43 42 45 50 53 57 60 61 63
Wind_Direction
53 54 52 47 48 52 54 53 49 43 39 37 36 34 33 34 32 25 23 18 12 9 5 2 360 1 8 10 6 357 344 328 313 300 295 293 288 280 268 260 259 256 247 239 237 237 236 234 233 233 235 238 239 239 238 238 235 231 226 223 223 225 225 226 227 226 225 229 236 240 238 235 233 229 217 207 209 221 230 222 209 201 188 176 174
45 43 43 42 44 49 51 48 45 42 38 38 39 39 36 34 33 28 22 16 9 5 4 2 359 358 358 357 355 352 349 342 334 323 310 300 293 288 279 268 262 261 258 248 240 237 236 234 233 232 232 235 237 237 238 238 236 232 227 225 224 226 227 226 227 229 231 232 236 241 242 240 238 237 230 217 209 214 227 231 225 209 191 175 171
39 38 39 43 46 47 48 46 42 41 39 39 41 42 40 37 35 30 22 16 9 3 1 1 360 356 352 348 346 345 343 341 337 334 327 315 303 292 284 277 269 263 262 258 249 241 236 234 234 234 231 232 234 234 236 237 238 235 228 225 225 227 230 229 228 228 232 237 238 241 243 244 242 241 239 230 217 212 218 228 231 225 206 187 179
40 40 41 43 44 44 46 46 43 41 39 39 39 38 38 36 33 28 24 19 15 12 7 3 359 353 349 347 345 344 342 340 337 334 333 328 320 308 295 283 276 270 265 264 259 249 242 239 239 239 236 235 235 234 234 236 239 239 233 227 224 226 230 232 232 230 231 235 239 242 244 246 246 244 243 240 231 219 216 221 224 227 220 206 197
39 38 40 40 39 40 42 42 39 36 33 32 32 32 32 32 29 25 21 17 14 15 15 10 2 356 354 353 351 349 347 345 342 337 334 330 325 317 308 296 285 277 269 266 265 259 250 244 239 238 239 239 240 238 238 237 237 240 239 234 229 226 228 232 234 233 232 233 236 241 243 246 248 249 247 244 241 231 221 219 219 222 223 218 209
36 33 32 32 30 31 33 31 27 24 22 21 20 20 20 22 23 19 15 12 9 9 9 9 6 2 2 1 1 358 357 355 351 345 337 333 329 320 310 302 295 288 281 273 268 262 256 254 246 238 237 240 243 240 239 238 235 237 239 239 236 231 230 231 235 236 235 234 236 238 242 245 248 251 252 249 246 240 231 223 220 220 221 219 213
29 26 20 17 15 14 17 16 13 11 9 9 9 8 8 10 12 9 5 3 3 3 1 1 2 2 1 1 2 2 3 2 0 357 348 341 335 328 316 305 298 293 291 285 276 264 256 261 259 249 240 238 238 235 234 236 234 234 235 236 236 236 235 233 235 238 238 237 236 238 241 243 246 250 254 254 251 246 239 230 223 221 221 220 215
17 12 2 354 352 352 356 356 355 355 356 356 359 0 1 3 3 1 358 355 353 353 353 353 355 356 355 354 354 354 355 357 357 358 357 353 346 338 329 316 303 294 290 289 285 274 257 253 257 258 251 241 237 235 233 233 232 231 232 233 233 234 235 235 236 238 241 241 238 238 241 243 245 246 250 255 254 251 245 238 230 225 223 222 219
355 345 339 332 332 334 336 337 336 336 338 343 348 350 352 355 355 353 352 348 345 345 346 346 348 350 348 346 345 344 343 345 346 348 352 355 355 350 342 331 318 305 295 288 286 282 268 252 249 257 258 252 246 241 236 234 231 231 232 232 232 232 233 234 234 236 239 243 242 240 240 243 245 246 247 250 254 254 250 244 237 231 226 223 222
332 325 320 315 317 321 321 322 322 323 327 332 337 342 344 346 346 343 342 340 338 339 340 339 341 344 342 339 339 338 338 338 338 339 342 346 351 353 349 343 333 322 310 300 290 284 276 262 251 252 255 255 253 247 243 242 239 236 234 233 233 233 233 232 232 233 235 239 243 243 242 242 244 246 246 246 249 252 253 250 245 238 231 226 223
319 316 314 312 315 315 315 317 317 319 322 326 331 337 337 336 336 334 334 333 331 331 332 331 332 335 334 332 333 333 334 335 335 336 337 338 341 346 348 346 342 335 327 319 308 292 280 269 259 253 251 251 251 248 245 246 246 243 238 236 235 235 235 234 232 232 232 234 238 242 242 242 243 245 247 247 246 248 251 252 250 244 238 233 227
315 315 316 317 316 315 315 316 316 317 320 323 326 329 329 328 329 328 328 328 327 325 325 326 325 326 326 326 327 328 329 331 333 334 334 333 333 336 340 342 341 339 336 331 325 311 292 278 267 260 254 252 252 249 246 246 246 244 242 239 237 236 237 238 237 235 233 233 235 238 240 241 242 244 246 247 247 247 248 250 251 248 244 239 233
315 315 315 314 313 313 313 313 314 315 316 317 318 318 318 318 318 319 320 322 322 321 322 323 323 322 322 323 323 323 323 326 330 330 330 330 330 331 333 334 334 334 335 334 332 324 309 293 278 268 261 257 257 255 252 250 249 248 246 241 238 239 238 238 240 241 238 236 234 235 238 240 240 241 244 247 248 248 248 248 249 249 247 243 239
311 313 312 311 312 313 314 315 315 314 312 310 308 308 308 309 309 311 314 316 319 318 320 322 322 322 321 321 321 319 319 322 325 325 325 326 328 329 328 327 327 328 329 330 331 328 320 307 291 276 267 261 258 257 254 250 249 250 248 242 238 238 238 238 239 241 241 240 238 236 237 239 239 239 240 243 246 248 249 248 248 249 248 246 242
309 312 314 316 317 318 319 320 319 315 311 308 307 306 306 306 307 310 313 317 320 321 322 323 322 321 321 321 320 319 318 318 320 321 320 322 324 325 324 323 321 322 323 323 324 324 321 315 304 288 275 266 262 260 256 250 246 246 246 244 240 238 239 239 239 240 241 242 243 241 238 238 239 239 238 238 241 244 247 248 249 248 247 247 245
307 311 314 316 318 319 320 319 318 315 313 310 307 305 306 308 310 314 318 323 327 328 328 326 322 321 321 320 320 319 317 316 316 318 317 318 319 319 319 319 317 316 316 316 317 317 317 316 311 301 287 275 268 265 262 257 251 247 246 246 246 245 243 241 240 241 242 241 242 242 240 239 239 240 240 238 238 240 242 245 247 248 247 246 245
303 306 309 312 314 315 316 316 316 314 313 311 309 308 310 313 317 321 325 328 331 332 332 329 325 323 321 320 319 318 317 316 316 317 316 315 315 314 315 314 313 312 310 309 308 309 310 311 310 306 298 287 277 271 268 264 259 255 252 249 249 249 248 246 245 244 243 241 240 241 241 240 238 238 240 240 239 240 240 241 243 245 246 245 244
298 300 303 305 308 310 313 316 317 317 316 315 315 316 317 321 324 327 329 330 330 330 330 328 326 325 323 321 319 317 317 317 316 317 317 316 315 313 312 311 310 308 305 302 300 299 300 301 302 302 300 293 283 276 271 269 265 262 259 255 253 252 251 250 249 248 246 244 243 242 241 240 238 237 238 239 240 240 241 241 241 241 242 243 243
295 297 300 303 306 310 315 318 319 318 317 316 315 315 317 321 324 326 327 326 326 326 326 325 324 324 323 321 319 316 315 315 315 316 315 315 314 313 313 312 310 306 303 299 296 294 293 294 296 297 298 295 288 278 271 268 266 264 261 259 257 255 254 252 250 248 247 246 245 244 241 240 238 237 237 237 238 240 241 242 243 243 242 241 241
296 297 299 303 307 310 314 316 316 315 313 310 307 308 311 315 319 322 322 322 323 323 323 323 323 322 321 320 318 315 313 312 312 313 313 313 312 312 313 313 311 307 304 301 296 292 290 290 292 295 296 296 293 285 274 267 264 263 262 260 258 256 255 253 250 248 247 246 245 245 243 240 239 238 237 236 236 238 239 242 244 245 244 242 240
296 297 299 302 305 308 310 311 311 310 308 304 302 305 309 314 320 322 322 322 323 324 324 324 323 322 321 319 317 314 312 310 309 309 310 312 313 313 312 313 312 308 302 300 298 294 290 289 290 293 294 295 294 291 282 272 265 262 261 260 259 257 255 253 251 249 249 248 246 245 242 241 241 239 238 237 236 236 236 238 240 242 244 244 242
294 295 297 299 302 304 307 307 307 308 306 303 303 306 311 317 322 324 324 323 324 324 325 325 325 324 322 320 318 316 313 311 310 309 310 311 313 314 312 310 311 309 303 299 297 294 292 291 292 293 293 293 291 290 286 278 270 265 262 260 259 258 257 255 253 250 249 249 247 244 242 241 241 240 239 239 238 236 235 235 237 239 241 243 243
292 293 295 297 300 303 305 306 307 309 308 305 304 307 313 318 321 322 323 322 322 323 324 326 326 325 324 322 320 318 316 314 314 313 313 312 312 313 311 306 304 303 302 299 297 295 292 291 292 293 293 293 291 288 285 280 274 269 266 264 262 260 257 256 254 252 250 248 246 244 243 242 241 240 240 240 239 238 237 236 236 237 239 241 242
292 294 295 297 300 302 305 306 308 310 311 308 307 309 314 317 318 318 319 319 320 322 324 325 325 325 324 322 320 319 317 316 316 316 316 316 315 314 313 309 302 297 295 293 293 294 293 292 293 294 295 294 292 289 285 280 275 271 268 266 265 264 261 258 255 253 251 248 245 243 242 242 241 240 240 240 239 238 237 236 236 236 237 238 240
294 294 295 297 299 302 304 306 308 310 311 310 309 311 314 316 316 314 314 315 318 321 322 322 323 322 321 320 319 318 317 316 316 316 316 317 316 315 313 311 306 299 293 288 287 289 291 292 292 293 294 294 292 290 287 283 278 273 270 268 266 265 263 261 258 255 252 249 246 243 242 242 241 240 239 239 240 239 237 236 235 235 236 237 238
294 294 294 295 298 300 303 305 306 308 310 310 309 312 316 317 315 313 312 313 316 318 318 319 320 321 321 320 319 318 318 318 317 317 317 316 315 313 311 308 305 300 295 290 285 285 286 288 290 291 291 292 292 290 288 284 281 277 274 272 270 267 264 262 259 256 253 250 247 245 243 242 241 240 240 240 241 240 238 236 235 234 234 235 236
293 293 293 294 296 298 300 302 304 306 308 308 309 312 314 315 314 312 311 312 313 314 315 317 319 320 321 321 320 320 319 319 319 319 318 316 314 312 309 306 303 300 297 293 288 284 282 283 285 286 288 289 289 289 288 285 282 279 277 276 275 272 268 263 259 256 253 250 248 246 245 244 242 241 241 241 242 241 239 237 235 234 233 234 234
290 291 292 294 294 296 298 299 300 302 305 306 307 310 311 311 311 310 310 309 309 311 313 315 318 320 321 321 320 319 318 319 319 318 318 316 315 313 310 306 303 300 298 294 290 287 284 282 281 282 284 285 286 286 286 284 282 280 278 278 277 275 271 266 261 256 252 249 248 246 245 245 244 243 242 242 242 241 239 237 235 234 233 233 234
286 288 291 292 293 294 295 294 295 297 300 303 304 305 306 307 307 307 307 307 307 309 311 314 317 319 320 320 318 316 315 315 314 314 315 315 315 313 310 307 304 301 298 293 288 285 285 285 283 282 283 283 283 282 282 282 281 280 278 278 278 277 274 269 263 258 253 249 246 245 245 245 244 243 243 242 241 241 240 238 236 235 233 232 233
281 283 285 288 289 290 290 290 290 291 294 297 299 301 302 303 303 304 305 306 306 308 311 313 315 317 317 317 316 314 312 311 310 310 312 314 314 313 309 306 304 303 300 294 286 282 282 284 285 284 284 283 282 281 280 279 279 279 279 279 279 278 276 271 265 259 255 250 246 244 244 245 244 243 243 242 241 240 240 239 237 235 233 231 231
281 282 283 285 285 285 285 286 286 286 289 292 295 297 299 299 300 302 304 305 307 308 311 312 313 315 315 315 315 313 311 310 309 308 310 311 312 312 309 306 305 304 301 296 289 284 283 284 285 286 286 286 284 282 280 279 278 278 279 279 279 278 276 273 267 260 255 251 247 244 242 243 244 244 242 241 240 239 238 238 238 236 234 232 230
282 284 286 285 283 282 282 284 285 284 286 290 293 295 296 296 298 302 304 306 308 309 310 311 312 312 313 314 314 313 311 310 309 309 309 310 311 311 310 308 306 304 300 297 293 290 289 288 286 287 287 286 285 284 282 280 278 277 278 278 278 277 275 272 267 261 256 252 249 246 244 242 242 243 243 242 240 238 237 236 237 236 235 233 231
283 285 287 286 284 282 282 283 284 283 283 287 292 294 294 295 299 303 306 308 309 309 310 310 311 311 312 313 313 312 312 311 310 310 310 310 310 310 310 308 306 304 300 297 294 291 292 291 288 286 286 285 285 286 285 283 281 279 277 277 276 275 272 270 266 261 257 254 250 247 245 243 242 242 242 242 240 238 235 234 234 235 235 233 232
284 284 285 287 289 288 287 286 284 282 281 283 288 292 293 296 301 305 308 310 309 309 310 309 309 310 312 313 313 313 312 312 311 311 310 310 310 310 309 308 306 304 301 298 296 294 292 293 291 288 286 286 286 287 286 285 283 281 277 274 273 271 268 266 263 259 257 255 253 250 247 244 243 241 241 240 240 238 236 233 232 233 234 233 232
284 284 285 287 291 292 290 289 287 283 281 282 286 291 293 297 303 308 310 311 310 309 308 308 308 310 313 315 315 314 313 312 312 311 310 309 309 309 308 307 305 303 301 300 300 298 296 295 294 291 288 288 289 288 286 284 282 280 275 270 268 267 265 263 261 258 256 255 254 253 250 247 243 242 240 239 238 238 236 234 232 231 231 233 233
284 285 285 284 287 290 291 291 290 287 284 284 287 290 293 299 304 307 311 312 311 309 307 308 310 312 315 317 316 314 313 312 312 311 310 309 309 308 306 305 303 301 301 300 299 298 297 296 295 294 293 292 292 289 285 281 279 275 271 267 264 262 261 261 261 259 256 255 254 254 253 250 246 242 240 239 237 236 236 234 233 231 229 230 232
284 286 285 284 284 287 291 292 291 290 288 286 287 289 293 300 303 306 311 313 310 308 308 310 311 312 315 316 316 314 313 312 311 310 309 308 307 305 303 301 300 300 300 299 297 297 297 297 296 296 297 296 293 288 282 278 275 271 269 267 266 263 261 260 261 260 259 256 255 253 252 252 250 246 241 238 237 236 235 234 233 232 229 228 230
283 286 285 286 286 286 288 289 288 290 289 287 288 291 295 300 302 304 308 310 308 308 309 311 312 312 314 315 315 313 311 311 310 309 307 306 304 302 300 299 299 299 299 298 297 297 297 297 296 297 299 298 292 285 279 276 273 269 267 267 267 266 263 261 261 262 262 260 257 255 253 252 251 250 245 240 237 236 235 233 232 232 231 228 228
281 282 285 287 288 287 285 284 286 288 289 289 292 295 298 300 300 301 304 305 306 308 310 312 312 312 314 315 313 311 310 310 310 308 306 304 302 300 299 298 297 298 297 296 296 296 296 296 296 298 300 298 291 285 279 275 273 270 267 266 265 264 264 264 263 263 263 263 261 259 256 253 251 250 249 244 239 236 234 233 232 231 231 229 228
284 282 286 287 286 284 280 279 282 286 288 291 294 297 298 299 299 300 301 304 307 309 311 311 312 313 314 312 310 308 309 309 309 308 306 303 301 298 297 296 296 296 295 295 295 295 296 296 298 301 302 297 290 287 282 278 275 272 269 267 265 263 263 263 263 263 263 263 263 261 259 256 252 249 249 247 242 237 234 233 232 230 230 229 228
287 282 283 285 284 282 277 275 279 283 286 289 292 294 297 299 300 301 303 306 309 310 311 312 312 312 310 308 306 306 307 308 308 307 305 302 300 298 296 296 296 295 295 295 296 296 296 298 301 303 301 296 291 289 285 283 280 276 273 271 269 267 266 264 264 264 263 263 262 262 261 259 254 250 247 248 246 241 235 232 231 230 229 229 228
283 278 276 277 280 278 272 270 275 280 283 286 288 291 296 299 299 301 305 309 312 314 315 315 313 310 307 306 305 306 306 306 306 305 303 302 301 299 297 296 296 296 296 296 296 297 298 301 303 302 299 296 293 290 288 287 286 282 278 276 274 272 270 267 266 266 266 264 262 260 259 258 255 251 248 248 247 244 238 232 230 230 229 228 228
278 274 270 268 271 272 268 267 273 278 280 282 284 287 293 295 295 300 306 311 315 319 319 316 311 308 307 306 305 304 304 304 305 304 302 302 302 300 298 297 297 296 296 295 296 297 300 303 303 301 299 297 295 292 291 291 290 288 285 282 280 277 275 272 267 265 265 265 263 261 258 256 254 252 250 249 247 245 241 233 229 229 228 227 227
282 276 271 266 266 268 267 268 273 276 278 280 281 283 288 289 291 297 305 312 317 320 318 313 309 307 306 305 303 302 302 304 305 304 303 304 303 300 299 298 297 296 296 296 297 300 302 304 302 300 299 298 296 295 295 294 294 292 290 288 287 284 281 279 275 269 265 263 262 260 258 255 254 252 250 249 247 245 242 235 229 227 227 226 226
289 278 273 268 265 265 265 268 273 275 276 278 278 279 282 285 288 295 303 310 315 316 314 311 308 307 307 305 304 303 302 303 304 304 304 305 303 301 301 300 298 297 297 299 301 302 302 302 301 300 299 299 298 298 298 299 298 296 294 292 291 289 286 284 281 273 266 264 262 260 257 256 255 253 249 248 245 243 241 236 229 225 225 225 225
299 279 271 269 263 261 263 267 271 273 274 275 276 276 278 281 286 293 299 305 310 311 311 310 309 308 308 306 305 304 303 303 303 304 305 305 304 303 303 300 298 298 300 302 302 302 301 301 301 300 300 301 301 301 302 303 302 301 300 299 296 293 290 285 280 272 265 262 262 261 257 256 257 254 248 245 244 242 240 236 229 224 223 223 223
307 282 267 263 258 258 263 268 269 270 272 273 274 276 278 279 285 290 295 302 307 308 308 308 309 309 308 307 307 306 305 304 304 304 305 306 306 306 304 302 300 301 302 303 303 302 301 300 300 300 301 302 302 303 306 305 305 306 307 306 303 299 294 286 278 271 265 262 262 259 254 254 258 255 247 244 244 241 239 236 229 222 220 221 222
312 286 263 253 253 259 265 267 267 269 271 272 273 277 278 280 285 288 293 301 305 304 305 307 309 310 310 310 309 307 306 306 305 306 307 308 308 307 305 303 303 304 304 304 302 301 299 298 298 299 300 301 302 305 306 306 308 310 310 308 306 303 299 291 285 279 271 266 265 259 254 254 258 255 246 244 244 241 237 234 228 221 219 219 220
309 289 265 257 263 268 268 269 270 270 271 273 275 278 280 283 285 286 291 300 303 302 304 307 309 311 312 312 310 308 307 307 307 307 309 309 308 307 305 305 305 306 305 303 301 299 298 298 299 300 301 302 304 305 305 306 311 314 314 313 310 308 306 303 299 293 279 268 263 259 256 256 257 253 247 244 243 240 235 231 226 220 217 217 219
300 287 274 274 278 278 274 274 276 276 276 277 280 282 284 286 285 285 293 300 302 302 305 308 309 312 313 312 311 309 309 309 308 309 310 309 307 307 306 306 306 306 305 302 299 297 297 298 300 301 302 304 305 306 306 310 316 320 321 318 314 311 312 311 309 301 279 261 260 259 258 258 257 252 247 244 243 239 233 228 223 218 215 216 217
297 291 287 289 291 287 282 280 281 281 281 284 285 284 283 284 286 290 296 301 303 304 306 308 310 312 312 312 312 311 310 309 308 308 309 307 307 307 307 306 307 306 304 300 298 297 297 300 301 302 304 306 307 307 309 314 320 323 323 321 316 312 313 314 313 306 281 254 257 261 260 258 255 250 245 244 243 238 231 226 220 216 214 214 216